Observations for Trim Market St
| Time | AQI | Temp °C | Hum % | Pres Pa | CO μg/m³ | H₂S μg/m³ | NO μg/m³ | NO₂ μg/m³ | O₃ μg/m³ | SO₂ μg/m³ | PM1 μg/m³ | PM2.5 μg/m³ | PM10 μg/m³ |
|---|---|---|---|---|---|---|---|---|---|---|---|---|---|
| Wednesday 15 July 2026 | |||||||||||||
| 17:20 | 1 | 32.3 | 35 | 66,171 | 0 | 19.42 | 0 | 7.21 | 43.78 | 0 | 6.41 | 9.54 | 12.54 |
| 17:19 | 1 | 32.5 | 34 | 66,231 | 0 | 18.33 | 0 | 5.19 | 36.26 | 0 | 7.13 | 13.32 | 18.42 |
| 17:13 | 1 | 33.6 | 33 | 66,331 | 0 | 12.28 | 0 | 4.79 | 38.49 | 0.23 | 7.13 | 11.28 | 14.31 |
| 17:12 | 1 | 33.9 | 32 | 66,362 | 0 | 12.42 | 0 | 4.75 | 39.49 | 0.64 | 7.13 | 10.77 | 13.48 |
| 17:10 | 1 | 34.3 | 32 | 66,382 | 0 | 9.74 | 0 | 5.7 | 37.26 | 0.39 | 4.99 | 9.72 | 12.65 |
| 17:08 | 1 | 34.6 | 32 | 66,394 | 0 | 4.24 | 0 | 2.36 | 38.26 | 0.83 | 4.28 | 9.19 | 13.51 |
| 17:01 | 1 | 35.3 | 31 | 66,467 | 0 | 4.3 | 0 | 4.9 | 33.83 | 0.55 | 7.13 | 10.84 | 13.53 |
| 17:00 | 1 | 35.4 | 31 | 66,487 | 0 | 4.15 | 0 | 4.69 | 28.68 | 0.34 | 6.41 | 10.84 | 13.53 |
| 16:59 | 1 | 35.4 | 31 | 66,478 | 0 | 5.32 | 0 | 8.3 | 40.91 | 0.39 | 5.7 | 8.14 | 10.96 |
| 16:58 | 1 | 35.5 | 31 | 66,493 | 0 | 1.25 | 0 | 5.09 | 27.14 | 0.79 | 6.41 | 10.86 | 13.54 |
| 16:57 | 1 | 35.6 | 31 | 66,523 | 0 | 2.24 | 0 | 5.19 | 36.59 | 0.63 | 5.7 | 10.87 | 13.55 |
| 16:56 | 1 | 35.6 | 30 | 66,525 | 0 | 0 | 0 | 0.51 | 34.85 | 0.97 | 5.7 | 9.8 | 12.7 |
| 16:55 | 1 | 35.7 | 30 | 66,529 | 0 | 0 | 0 | 0.9 | 34.25 | 0.81 | 4.99 | 8.72 | 10.11 |
| 16:54 | 1 | 35.7 | 30 | 66,525 | 0 | 0 | 0 | 3.5 | 32.29 | 0.35 | 6.41 | 9.81 | 11.84 |
| 16:53 | 1 | 35.8 | 30 | 66,529 | 0 | 0 | 0 | 0 | 29.72 | 1.1 | 4.99 | 9.8 | 12.7 |
| 16:50 | 1 | 36 | 30 | 66,560 | 0 | 0 | 0 | 0 | 27.48 | 0.9 | 5.7 | 9.27 | 11.84 |
| 16:46 | 1 | 36.1 | 30 | 66,570 | 0 | 0 | 0 | 2.78 | 31.58 | 0.95 | 4.99 | 9.26 | 12.7 |
| 16:41 | 1 | 36.3 | 30 | 66,582 | 0 | 0 | 0 | 1.53 | 32.92 | 1.11 | 5.7 | 10.34 | 12.7 |
| 16:38 | 1 | 36.4 | 30 | 66,578 | 0 | 0 | 0 | 1.81 | 20.25 | 0.63 | 4.99 | 10.35 | 12.7 |
| 16:36 | 1 | 36.4 | 30 | 66,590 | 0 | 0 | 0 | 3.11 | 33.08 | 1.32 | 5.7 | 10.35 | 12.7 |